EW7146 Weather Reports


Display with metric or nautical units.
time (UTC)temp
F
wind
direction
speed
MPH
gust
MPH
rain 1hr
in
rain 24hr
in
rain mn
in
humidity
%
barometer
mb
20260509034247 59 288 1.0 7.0 0.00 0.00 0.00 35 1029.3
20260509034240 59 272 0.0 6.0 0.00 0.00 0.00 35 1029.3
20260509033502 59 278 4.0 7.0 0.00 0.00 0.00 35 1029.1
20260509033228 59 290 4.0 6.0 0.00 0.00 0.00 34 1028.9
20260509032502 60 250 2.0 5.0 0.00 0.00 0.00 34 1028.7
20260509032003 60 303 1.0 14.0 0.00 0.00 0.00 34 1028.6
20260509031240 60 295 5.0 14.0 0.00 0.00 0.00 33 1028.5
20260509030739 60 281 3.0 10.0 0.00 0.00 0.00 33 1028.4
20260509030456 61 281 2.0 11.0 0.00 0.00 0.00 32 1028.4
20260509025738 61 289 2.0 11.0 0.00 0.00 0.00 32 1028.3
20260509025241 61 272 2.0 5.0 0.00 0.00 0.00 32 1028.2
20260509024739 62 274 2.0 5.0 0.00 0.00 0.00 31 1028.1
20260509024239 63 6 1.0 6.0 0.00 0.00 0.00 30 1028.0
20260509023739 64 276 2.0 6.0 0.00 0.00 0.00 29 1028.0
20260509023504 65 274 0.0 3.0 0.00 0.00 0.00 28 1027.9
20260509023001 65 276 1.0 4.0 0.00 0.00 0.00 27 1027.9
20260509022239 66 10 1.0 7.0 0.00 0.00 0.00 27 1027.8
20260509021739 66 279 2.0 7.0 0.00 0.00 0.00 27 1027.8
20260509021238 66 274 1.0 7.0 0.00 0.00 0.00 26 1027.6
20260509020739 66 3 1.0 12.0 0.00 0.00 0.00 26 1027.5
20260509020237 67 31 4.0 12.0 0.00 0.00 0.00 25 1027.5
20260509015737 67 186 2.0 7.0 0.00 0.00 0.00 26 1027.5
20260509015237 68 344 2.0 12.0 0.00 0.00 0.00 25 1027.3
20260509014737 68 0 1.0 12.0 0.00 0.00 0.00 26 1027.2
20260509014237 68 327 3.0 10.0 0.00 0.00 0.00 25 1027.1
20260509013737 68 309 4.0 10.0 0.00 0.00 0.00 25 1027.1
20260509013456 69 324 3.0 12.0 0.00 0.00 0.00 26 1026.9
20260509012737 69 353 5.0 12.0 0.00 0.00 0.00 26 1026.9
20260509012240 69 285 2.0 6.0 0.00 0.00 0.00 26 1026.9
20260509011736 69 285 1.0 5.0 0.00 0.00 0.00 26 1026.9
20260509011236 69 300 2.0 9.0 0.00 0.00 0.00 26 1026.9
20260509010736 69 278 1.0 9.0 0.00 0.00 0.00 27 1026.8
20260509010236 67 259 1.0 6.0 0.00 0.00 0.00 27 1026.9
20260509005737 67 338 1.0 4.0 0.00 0.00 0.00 27 1026.8
20260509005455 67 45 1.0 9.0 0.00 0.00 0.00 28 1026.8
20260509004958 67 3 2.0 9.0 0.00 0.00 0.00 27 1026.9
20260509004236 67 281 0.0 9.0 0.00 0.00 0.00 27 1026.9
20260509003737 67 216 0.0 9.0 0.00 0.00 0.00 27 1026.7
20260509003236 67 42 3.0 7.0 0.00 0.00 0.00 27 1026.7
20260509002735 67 286 2.0 5.0 0.00 0.00 0.00 26 1026.8
20260509002236 67 248 2.0 5.0 0.00 0.00 0.00 26 1026.7
20260509001735 67 289 1.0 5.0 0.00 0.00 0.00 26 1026.8
20260509001236 68 302 1.0 7.0 0.00 0.00 0.00 27 1026.7
20260509000738 68 272 1.0 7.0 0.00 0.00 0.00 25 1026.8
20260509000728 68 264 0.0 5.0 0.00 0.00 0.00 25 1026.7
20260508235735 68 281 1.0 5.0 0.00 0.00 0.00 26 1026.8
20260508235236 68 48 1.0 4.0 0.00 0.00 0.00 26 1026.8
20260508234735 68 289 1.0 9.0 0.00 0.00 0.00 27 1026.8
20260508234239 67 324 2.0 9.0 0.00 0.00 0.00 28 1026.8
20260508233734 67 264 2.0 10.0 0.00 0.00 0.00 26 1026.7
20260508233234 67 282 3.0 10.0 0.00 0.00 0.00 26 1026.7
20260508232957 67 279 2.0 15.0 0.00 0.00 0.00 26 1026.6
20260508232453 67 265 4.0 15.0 0.00 0.00 0.00 26 1026.6
20260508231735 67 293 4.0 13.0 0.00 0.00 0.00 26 1026.6
20260508231233 68 258 4.0 13.0 0.00 0.00 0.00 25 1026.5
20260508230735 68 286 4.0 13.0 0.00 0.00 0.00 25 1026.5
20260508230234 68 282 4.0 14.0 0.00 0.00 0.00 25 1026.4
20260508225959 68 313 7.0 16.0 0.00 0.00 0.00 25 1026.2
20260508225233 69 336 5.0 16.0 0.00 0.00 0.00 25 1026.2
20260508224953 69 271 5.0 16.0 0.00 0.00 0.00 25 1026.2
20260508224234 69 293 5.0 12.0 0.00 0.00 0.00 25 1026.2
20260508223959 69 296 3.0 11.0 0.00 0.00 0.00 25 1026.0
20260508223234 69 323 3.0 14.0 0.00 0.00 0.00 25 1026.1
20260508222733 69 238 4.0 14.0 0.00 0.00 0.00 25 1025.7
20260508222716 69 295 5.0 14.0 0.00 0.00 0.00 24 1025.8
20260508221733 70 309 4.0 15.0 0.00 0.00 0.00 24 1025.7
20260508221456 69 258 5.0 15.0 0.00 0.00 0.00 25 1025.7
20260508220733 69 39 5.0 19.0 0.00 0.00 0.00 24 1025.6
20260508220232 70 275 5.0 19.0 0.00 0.00 0.00 24 1025.7
20260508215734 71 254 5.0 13.0 0.00 0.00 0.00 24 1025.8
20260508215232 71 255 3.0 14.0 0.00 0.00 0.00 24 1025.5
20260508214738 71 269 4.0 14.0 0.00 0.00 0.00 24 1025.5
20260508214232 70 264 4.0 20.0 0.00 0.00 0.00 24 1025.5
20260508213733 70 262 8.0 20.0 0.00 0.00 0.00 23 1025.4
20260508213237 70 268 4.0 13.0 0.00 0.00 0.00 24 1025.7
20260508212732 70 319 4.0 14.0 0.00 0.00 0.00 25 1025.6
20260508212232 69 290 7.0 14.0 0.00 0.00 0.00 23 1025.6
20260508211731 69 288 4.0 9.0 0.00 0.00 0.00 24 1025.5
20260508211232 69 293 2.0 14.0 0.00 0.00 0.00 25 1025.4
20260508210732 69 272 6.0 14.0 0.00 0.00 0.00 25 1025.4
20260508210232 69 295 2.0 20.0 0.00 0.00 0.00 25 1025.2
20260508205731 68 272 2.0 20.0 0.00 0.00 0.00 24 1025.3
20260508205230 68 269 7.0 16.0 0.00 0.00 0.00 24 1025.2
20260508204731 68 255 5.0 12.0 0.00 0.00 0.00 23 1025.1
20260508204455 69 314 6.0 13.0 0.00 0.00 0.00 23 1025.0
20260508203731 69 248 5.0 14.0 0.00 0.00 0.00 23 1024.9
20260508203720 69 243 4.0 14.0 0.00 0.00 0.00 23 1024.9
20260508202731 69 319 4.0 14.0 0.00 0.00 0.00 22 1024.8
20260508202230 69 286 4.0 13.0 0.00 0.00 0.00 21 1024.8
20260508201731 69 290 5.0 13.0 0.00 0.00 0.00 22 1024.8
20260508201229 69 224 2.0 12.0 0.00 0.00 0.00 24 1024.6
20260508200730 70 293 5.0 12.0 0.00 0.00 0.00 22 1024.7
20260508200230 70 278 3.0 13.0 0.00 0.00 0.00 22 1024.6
20260508195950 70 276 2.0 13.0 0.00 0.00 0.00 23 1024.6
20260508195230 70 257 5.0 10.0 0.00 0.00 0.00 23 1024.6
20260508194728 71 264 3.0 10.0 0.00 0.00 0.00 23 1024.5
20260508194230 71 223 3.0 10.0 0.00 0.00 0.00 23 1024.2
20260508193729 71 283 3.0 6.0 0.00 0.00 0.00 22 1024.5
20260508193231 71 265 2.0 9.0 0.00 0.00 0.00 25 1024.5
20260508192728 72 285 3.0 12.0 0.00 0.00 0.00 24 1024.4
20260508192228 72 281 3.0 12.0 0.00 0.00 0.00 23 1024.4
20260508191728 71 312 4.0 10.0 0.00 0.00 0.00 24 1024.5
20260508191228 70 319 2.0 10.0 0.00 0.00 0.00 25 1024.6
20260508190729 69 90 2.0 13.0 0.00 0.00 0.00 27 1024.7
20260508190228 69 266 7.0 13.0 0.00 0.00 0.00 26 1024.7
20260508185730 69 238 2.0 12.0 0.00 0.00 0.00 27 1024.6
20260508185228 69 247 2.0 15.0 0.00 0.00 0.00 26 1024.6
20260508184729 69 276 4.0 15.0 0.00 0.00 0.00 25 1024.6
20260508184448 70 282 3.0 15.0 0.00 0.00 0.00 26 1024.6
20260508183728 70 279 8.0 15.0 0.00 0.00 0.00 26 1024.6
20260508183228 71 264 4.0 16.0 0.00 0.00 0.00 27 1024.6
20260508182727 70 233 6.0 16.0 0.00 0.00 0.00 26 1024.7
20260508182228 69 274 4.0 11.0 0.00 0.00 0.00 27 1024.6
20260508181948 69 272 3.0 13.0 0.00 0.00 0.00 27 1024.5
20260508181229 69 295 3.0 13.0 0.00 0.00 0.00 29 1024.5
20260508180727 69 282 5.0 11.0 0.00 0.00 0.00 25 1024.6
20260508180227 69 317 5.0 11.0 0.00 0.00 0.00 27 1024.5
20260508175727 69 14 2.0 10.0 0.00 0.00 0.00 30 1024.5
20260508175227 68 292 4.0 10.0 0.00 0.00 0.00 28 1024.6
20260508174727 68 282 4.0 10.0 0.00 0.00 0.00 30 1024.6
20260508174227 67 302 1.0 10.0 0.00 0.00 0.00 33 1024.6
20260508173727 66 254 4.0 10.0 0.00 0.00 0.00 31 1024.6
20260508173226 65 289 2.0 11.0 0.00 0.00 0.00 34 1024.6
20260508172728 65 292 2.0 11.0 0.00 0.00 0.00 34 1024.6
20260508172226 65 347 2.0 6.0 0.00 0.00 0.00 40 1024.5
20260508171725 65 269 2.0 5.0 0.00 0.00 0.00 40 1024.6
20260508171225 65 3 1.0 3.0 0.00 0.00 0.00 44 1024.7
20260508170724 65 275 0.0 3.0 0.00 0.00 0.00 44 1024.8
20260508170226 64 68 2.0 3.0 0.00 0.00 0.00 46 1024.8
20260508165944 64 138 1.0 3.0 0.00 0.00 0.00 44 1024.7
20260508165227 63 338 0.0 3.0 0.00 0.00 0.00 51 1024.7
20260508164725 62 125 1.0 3.0 0.00 0.00 0.00 50 1024.8
20260508164226 62 42 1.0 4.0 0.00 0.00 0.00 53 1024.8
20260508163725 61 116 1.0 4.0 0.00 0.00 0.00 54 1024.7
20260508163224 60 117 1.0 3.0 0.00 0.00 0.00 58 1024.7
20260508162722 60 113 1.0 4.0 0.00 0.00 0.00 58 1024.7
20260508162224 60 83 1.0 4.0 0.00 0.00 0.00 58 1024.8
20260508161726 59 121 1.0 3.0 0.00 0.00 0.00 57 1024.8
20260508161224 59 75 2.0 3.0 0.00 0.00 0.00 57 1024.8
20260508160725 59 133 1.0 3.0 0.00 0.00 0.00 59 1024.9
20260508160224 58 109 1.0 3.0 0.00 0.00 0.00 62 1024.9
20260508155724 58 38 0.0 1.0 0.00 0.00 0.00 64 1025.0
20260508155224 57 116 0.0 1.0 0.00 0.00 0.00 65 1025.0
20260508154948 56 72 0.0 1.0 0.00 0.00 0.00 68 1025.0
20260508154222 56 72 0.0 1.0 0.00 0.00 0.00 69 1025.0
20260508153723 56 72 0.0 1.0 0.00 0.00 0.00 71 1025.0
20260508153225 55 14 0.0 1.0 0.00 0.00 0.00 71 1025.0
20260508152723 55 331 0.0 1.0 0.00 0.00 0.00 71 1025.0
20260508152224 55 343 0.0 0.0 0.00 0.00 0.00 71 1025.0
20260508151723 55 51 0.0 0.0 0.00 0.00 0.00 71 1025.1
20260508151223 54 51 0.0 0.0 0.00 0.00 0.00 72 1025.0
20260508150722 53 52 0.0 2.0 0.00 0.00 0.00 72 1024.9
20260508150219 53 39 0.0 2.0 0.00 0.00 0.00 73 1025.0
20260508145945 53 41 0.0 0.0 0.00 0.00 0.00 74 1024.9
20260508145223 52 276 0.0 0.0 0.00 0.00 0.00 73 1025.0
20260508144724 52 276 0.0 0.0 0.00 0.00 0.00 74 1025.1
20260508144702 52 276 0.0 0.0 0.00 0.00 0.00 74 1025.0
20260508143723 51 276 0.0 0.0 0.00 0.00 0.00 75 1025.0
20260508143651 49 289 0.0 0.0 0.00 0.00 0.00 77 1025.0
20260508143314 51 276 0.0 0.0 0.00 0.00 0.00 77 1025.0
20260508142821 50 276 0.0 0.0 0.00 0.00 0.00 76 1024.9
20260508141724 49 289 0.0 0.0 0.00 0.00 0.00 80 1025.0
20260508141219 49 289 0.0 0.0 0.00 0.00 0.00 81 1025.0
20260508140948 49 289 0.0 0.0 0.00 0.00 0.00 81 1025.0
20260508140223 49 275 0.0 0.0 0.00 0.00 0.00 81 1024.9
20260508135941 49 141 0.0 0.0 0.00 0.00 0.00 81 1024.9
20260508135444 49 141 0.0 0.0 0.00 0.00 0.00 81 1024.9
20260508134948 48 141 0.0 0.0 0.00 0.00 0.00 80 1025.0
20260508134221 48 141 0.0 0.0 0.00 0.00 0.00 81 1025.1
20260508133718 47 141 0.0 0.0 0.00 0.00 0.00 83 1024.9
20260508133217 46 154 0.0 0.0 0.00 0.00 0.00 83 1025.0
20260508132719 46 154 0.0 0.0 0.00 0.00 0.00 83 1025.0
20260508132221 46 155 0.0 0.0 0.00 0.00 0.00 83 1025.1
20260508132212 45 155 0.0 0.0 0.00 0.00 0.00 84 1025.1
20260508131221 45 155 0.0 0.0 0.00 0.00 0.00 84 1025.1
20260508130720 45 155 0.0 0.0 0.00 0.00 0.00 84 1025.0
20260508130220 44 155 0.0 0.0 0.00 0.00 0.00 84 1025.0
20260508125720 44 155 0.0 0.0 0.00 0.00 0.00 84 1025.0
20260508125220 44 155 0.0 0.0 0.00 0.00 0.00 83 1025.0
20260508124719 44 155 0.0 0.0 0.00 0.00 0.00 83 1024.9
20260508124218 44 155 0.0 0.0 0.00 0.00 0.00 82 1024.8
20260508123719 44 155 0.0 0.0 0.00 0.00 0.00 81 1024.7
20260508123221 44 155 0.0 0.0 0.00 0.00 0.00 82 1024.7
20260508122941 44 155 0.0 0.0 0.00 0.00 0.00 82 1024.7
20260508122219 45 154 0.0 0.0 0.00 0.00 0.00 81 1024.7
20260508121719 45 154 0.0 0.0 0.00 0.00 0.00 81 1024.8
20260508121219 45 154 0.0 0.0 0.00 0.00 0.00 81 1024.7
20260508120717 45 154 0.0 0.0 0.00 0.00 0.00 81 1024.7
20260508120214 45 154 0.0 0.0 0.00 0.00 0.00 80 1024.7
20260508120200 46 200 0.0 0.0 0.00 0.00 0.00 80 1024.7
20260508115218 46 200 0.0 0.0 0.00 0.00 0.00 80 1024.6
20260508115159 46 200 0.0 0.0 0.00 0.00 0.00 80 1024.6
20260508114218 45 200 0.0 0.0 0.00 0.00 0.00 80 1024.7
20260508113718 46 200 0.0 0.0 0.00 0.00 0.00 79 1024.7
20260508113218 46 200 0.0 0.0 0.00 0.00 0.00 78 1024.7
20260508112943 46 200 0.0 0.0 0.00 0.00 0.00 77 1024.7
20260508112442 47 200 0.0 0.0 0.00 0.00 0.00 77 1024.6
20260508111717 47 200 0.0 0.0 0.00 0.00 0.00 77 1024.7
20260508111219 46 214 0.0 0.0 0.00 0.00 0.00 78 1024.7
20260508110718 46 210 0.0 0.0 0.00 0.00 0.00 77 1024.7
20260508110218 46 209 0.0 0.0 0.00 0.00 0.00 76 1024.7
20260508105717 47 209 0.0 0.0 0.00 0.00 0.00 74 1024.7
20260508105218 48 209 0.0 0.0 0.00 0.00 0.00 74 1024.7
20260508104717 48 209 0.0 0.0 0.00 0.00 0.00 74 1024.7
20260508104440 48 190 0.0 0.0 0.00 0.00 0.00 74 1024.7
20260508103714 48 190 0.0 0.0 0.00 0.00 0.00 73 1024.7
20260508103214 49 190 0.0 0.0 0.00 0.00 0.00 72 1024.6
20260508102717 49 190 0.0 0.0 0.00 0.00 0.00 72 1024.6
20260508102216 49 193 0.0 0.0 0.00 0.00 0.00 72 1024.6
20260508101718 49 216 0.0 0.0 0.00 0.00 0.00 72 1024.6
20260508101216 49 216 0.0 0.0 0.00 0.00 0.00 71 1024.7
20260508100936 49 216 0.0 0.0 0.00 0.00 0.00 71 1024.7
20260508100216 49 216 0.0 0.0 0.00 0.00 0.00 71 1024.7
20260508095715 49 193 0.0 0.0 0.00 0.00 0.00 71 1024.8
20260508095217 49 210 0.0 0.0 0.00 0.00 0.00 71 1024.9
20260508094716 50 210 0.0 0.0 0.00 0.00 0.00 70 1024.9
20260508094438 50 213 0.0 0.0 0.00 0.00 0.00 70 1024.8
20260508093715 50 258 0.0 0.0 0.00 0.00 0.00 70 1024.7
20260508093415 50 237 0.0 1.0 0.00 0.00 0.00 69 1024.7
20260508093306 50 235 0.0 0.0 0.00 0.00 0.00 70 1024.7
20260508092215 50 161 0.0 1.0 0.00 0.00 0.00 68 1024.8
20260508091715 51 212 0.0 2.0 0.00 0.00 0.00 68 1024.8
20260508091216 51 196 0.0 3.0 0.00 0.00 0.00 67 1024.8
20260508090716 52 135 0.0 3.0 0.00 0.00 0.00 66 1024.7
20260508090703 52 269 0.0 3.0 0.00 0.00 0.00 66 1024.8
20260508085716 52 140 1.0 3.0 0.00 0.00 0.00 66 1024.8
20260508085214 52 96 0.0 2.0 0.00 0.00 0.00 65 1024.7
20260508084714 53 180 0.0 4.0 0.00 0.00 0.00 65 1024.7
20260508084435 53 161 2.0 4.0 0.00 0.00 0.00 64 1024.6
20260508083714 53 207 1.0 2.0 0.00 0.00 0.00 64 1024.6
20260508083211 53 164 2.0 2.0 0.00 0.00 0.00 63 1024.6
20260508082710 53 199 1.0 3.0 0.00 0.00 0.00 63 1024.7
20260508082212 53 226 2.0 3.0 0.00 0.00 0.00 62 1024.6
20260508081710 53 210 2.0 2.0 0.00 0.00 0.00 63 1024.6
20260508081215 53 220 2.0 2.0 0.00 0.00 0.00 63 1024.7
20260508081158 53 231 1.0 3.0 0.00 0.00 0.00 63 1024.7
20260508080214 53 213 2.0 3.0 0.00 0.00 0.00 63 1024.7
20260508075936 54 231 0.0 3.0 0.00 0.00 0.00 62 1024.7
20260508075209 54 199 2.0 3.0 0.00 0.00 0.00 62 1024.7
20260508074710 54 192 1.0 2.0 0.00 0.00 0.00 61 1024.7
20260508074209 54 210 1.0 2.0 0.00 0.00 0.00 61 1024.7
20260508073711 54 206 0.0 2.0 0.00 0.00 0.00 61 1024.6
20260508073212 55 196 0.0 1.0 0.00 0.00 0.00 60 1024.5
20260508072714 55 82 0.0 3.0 0.00 0.00 0.00 58 1024.6
20260508072212 56 82 1.0 3.0 0.00 0.00 0.00 57 1024.6
20260508071712 57 195 0.0 2.0 0.00 0.00 0.00 55 1024.6
20260508071212 57 192 0.0 2.0 0.00 0.00 0.00 55 1024.6
20260508070712 58 196 1.0 5.0 0.00 0.00 0.00 54 1024.7
20260508070213 58 204 0.0 5.0 0.00 0.00 0.00 53 1024.6
20260508065712 59 121 3.0 5.0 0.00 0.00 0.00 53 1024.6
20260508065213 61 37 1.0 4.0 0.00 0.00 0.00 49 1024.5
20260508064711 60 257 1.0 3.0 0.00 0.00 0.00 49 1024.5
20260508064211 60 155 0.0 1.0 0.00 0.00 0.00 50 1024.5
20260508063711 60 276 0.0 1.0 0.00 0.00 0.00 49 1024.4
20260508063210 61 0 0.0 3.0 0.00 0.00 0.00 49 1024.4
20260508062711 62 285 1.0 7.0 0.00 0.00 0.00 47 1024.4
20260508062211 63 296 0.0 7.0 0.00 0.00 0.00 47 1024.5
20260508061711 62 226 3.0 6.0 0.00 0.00 0.00 46 1024.4
20260508061210 62 285 1.0 4.0 0.00 0.00 0.00 48 1024.4
20260508060713 60 241 1.0 4.0 0.00 0.00 0.00 50 1024.2
20260508060211 60 269 0.0 2.0 0.00 0.00 0.00 51 1024.4
20260508055711 60 241 1.0 2.0 0.00 0.00 0.00 51 1024.4
20260508055649 60 262 0.0 1.0 0.00 0.00 0.00 51 1024.4
20260508054710 60 262 0.0 3.0 0.00 0.00 0.00 52 1024.2
20260508054210 60 274 1.0 3.0 0.00 0.00 0.00 52 1024.4
20260508053711 60 141 1.0 2.0 0.00 0.00 0.00 53 1024.2
20260508053210 60 330 0.0 2.0 0.00 0.00 0.00 54 1024.1
20260508052929 60 313 0.0 2.0 0.00 0.00 0.00 55 1024.2
20260508052211 61 261 0.0 2.0 0.00 0.00 0.00 52 1024.2
20260508051709 62 261 0.0 2.0 0.00 0.00 0.00 50 1024.1
20260508051434 63 264 0.0 2.0 0.00 0.00 0.00 47 1024.0
20260508050927 62 255 0.0 0.0 0.00 0.00 0.00 48 1024.0
20260508050214 62 261 0.0 0.0 0.00 0.00 0.00 49 1024.1
20260508045709 60 261 0.0 0.0 0.00 0.00 0.00 52 1024.1
20260508045208 59 248 0.0 0.0 0.00 0.00 0.00 54 1024.1
20260508044932 59 248 0.0 0.0 0.00 0.00 0.00 55 1024.1
20260508044209 59 247 0.0 0.0 0.00 0.00 0.00 56 1024.0
20260508044154 60 247 0.0 0.0 0.00 0.00 0.00 55 1024.0
20260508043208 60 247 0.0 0.0 0.00 0.00 0.00 55 1023.9
20260508042709 61 279 0.0 0.0 0.00 0.00 0.00 54 1023.9
20260508042208 61 245 0.0 0.0 0.00 0.00 0.00 54 1023.8
20260508041708 60 204 0.0 0.0 0.00 0.00 0.00 55 1023.7
20260508041657 60 224 0.0 0.0 0.00 0.00 0.00 57 1023.7
20260508040707 61 224 0.0 0.0 0.00 0.00 0.00 56 1023.7
20260508040209 62 224 0.0 0.0 0.00 0.00 0.00 53 1023.7
20260508035707 63 224 0.0 0.0 0.00 0.00 0.00 52 1023.6
20260508035210 63 285 0.0 0.0 0.00 0.00 0.00 51 1023.6
20260508034939 63 326 0.0 0.0 0.00 0.00 0.00 51 1023.5